BEIDOU-3 M13 (C32)

Last updated on Oct. 29, 2020, 5:53 a.m. UTC

1 43622U 18072A   20301.77881103  .00000077  00000-0  00000-0 0  9990
2 43622  55.1846 131.4623 0004097 290.8857  13.4601  1.86231849 14313
UTC
Height (km)
Latitude
Longitude
Inclination
Orbital Period
UTC large
Height (km)
Speed (km/s)
/
Latitude / Longitude
Inclination (degrees)
Orbital Period (minutes)
Azimuth
Elevation
Range (km)
Doppler Factor
iOS Compass Heading
iOS Angle

Next 30 passes for location: Hong Kong

Rise time Rise Azimuth (degrees) Set time Set Azimuth (degrees) Duration Max altitude (degrees)

No matching passes for this satellites